Location: Asheville, NC
(35.6000°N, 82.5500°W)
Time: 17:09:01
(UTC-05:00)

Vanguard 2 - Pass Details

Date: 09 February 2018
Orbit: 553 x 2939 km, 32.9° (Epoch: 18 February)

Event Time Altitude Azimuth Distance (km) Brightness Sun altitude
Rises 03:08:06 0° 269° (W) 2,907 - -51.7°
Reaches altitude 10° 03:10:26 10° 255° (WSW) 2,152 - -51.2°
Maximum altitude 03:14:30 26° 199° (SSW) 1,643 - -50.5°
Drops below altitude 10° 03:20:09 10° 146° (SE) 3,062 - -49.4°
Exits shadow 03:22:02 - 139° (SE) 3,704 11.2 -49.0°
Sets 03:24:13 0° 135° (SE) 4,464 11.7 -48.6°
